N0MR Weather Reports


time (UTC)temp
F
wind
direction
speed
knots
gust
knots
rain 1hr
in
rain 24hr
in
rain mn
in
humidity
%
barometer
mb
20260905181925 66 142 0.0 0.9 0.00 0.01 0.01 92 1018.9
20260905175925 65 139 0.0 0.9 0.00 0.01 0.01 92 1018.9
20260905174926 65 139 0.0 0.9 0.00 0.01 0.01 92 1018.9
20260905173926 64 186 0.0 1.7 0.00 0.01 0.01 94 1019.1
20260905172929 64 186 0.0 1.7 0.00 0.01 0.01 94 1019.1
20260905171927 64 302 0.0 0.9 0.00 0.01 0.01 95 1018.9
20260905170926 64 302 0.0 0.9 0.00 0.01 0.01 95 1018.9
20260905165926 63 245 0.0 0.0 0.00 0.01 0.01 96 1019.1
20260905164929 63 245 0.0 0.0 0.00 0.01 0.01 96 1019.1
20260905163927 62 245 0.0 0.0 0.00 0.01 0.01 97 1019.3
20260905162926 62 245 0.0 0.0 0.00 0.01 0.01 97 1019.3
20260905161927 62 202 0.0 0.0 0.00 0.01 0.01 97 1019.0
20260905160927 62 202 0.0 0.0 0.00 0.01 0.01 97 1019.0
20260905140928 59 326 0.0 0.0 0.00 0.01 0.01 98 1018.6
20260905135927 59 326 0.0 0.0 0.00 0.01 0.01 98 1018.6
20260905121927 58 327 0.0 1.7 0.00 0.01 0.01 97 1016.9
20260905120930 58 327 0.0 1.7 0.00 0.01 0.01 97 1016.9
20260905115930 57 328 0.0 0.0 0.00 0.01 0.01 97 1016.8
20260905114932 57 328 0.0 0.0 0.00 0.01 0.01 97 1016.8
20260905113928 57 263 0.0 0.0 0.00 0.01 0.01 97 1016.8
20260905111929 57 265 0.0 2.6 0.00 0.01 0.01 97 1016.8
20260905110928 57 265 0.0 2.6 0.00 0.01 0.01 97 1016.8
20260905105929 57 277 0.0 0.9 0.00 0.01 0.01 97 1016.8
20260905104931 57 277 0.0 0.9 0.00 0.01 0.01 97 1016.8
20260905103928 57 277 0.0 0.9 0.00 0.01 0.01 97 1016.7
20260905102929 57 277 0.0 0.9 0.00 0.01 0.01 97 1016.7
20260905101931 58 276 0.0 0.0 0.00 0.01 0.01 97 1016.9
20260905100928 58 276 0.0 0.0 0.00 0.01 0.01 97 1016.9
20260905095930 58 276 0.0 0.0 0.00 0.01 0.01 97 1017.0
20260905094929 58 276 0.0 0.0 0.00 0.01 0.01 97 1017.0
20260905093928 58 276 0.0 0.0 0.00 0.01 0.01 97 1017.0
20260905092929 58 276 0.0 0.0 0.00 0.01 0.01 97 1017.0
20260905091929 58 276 0.0 2.6 0.00 0.01 0.01 97 1017.1
20260905085930 58 276 0.0 0.9 0.00 0.01 0.01 97 1017.2
20260905084932 59 272 0.0 0.0 0.00 0.01 0.01 97 1017.3
20260905083929 59 272 0.0 0.0 0.00 0.01 0.01 97 1017.3
20260905082929 59 272 0.0 0.0 0.00 0.01 0.01 97 1017.2
20260905081930 59 272 0.0 0.0 0.00 0.01 0.01 97 1017.2
20260905080929 59 272 0.0 0.0 0.01 0.01 0.01 97 1017.2
20260905075930 59 272 0.0 0.0 0.01 0.01 0.01 97 1017.2
20260905074929 59 272 0.0 0.0 0.01 0.04 0.01 97 1017.0
20260905073929 59 272 0.0 0.0 0.01 0.04 0.01 97 1017.0
20260905072929 59 272 0.0 0.0 0.01 0.50 0.01 97 1016.8
20260905071930 59 272 0.0 0.0 0.01 0.50 0.01 97 1016.8
20260905070929 59 272 0.0 0.0 0.00 0.51 0.00 97 1016.8
20260905065930 59 272 0.0 0.0 0.00 0.51 0.00 97 1016.8
20260905064929 59 272 0.0 1.7 0.00 0.52 0.00 97 1017.0
20260905063930 59 272 0.0 1.7 0.00 0.52 0.00 97 1017.0
20260905062940 59 272 0.0 0.9 0.00 0.53 0.00 97 1017.0
20260905061930 59 272 0.0 0.9 0.00 0.53 0.00 97 1017.0
20260905060930 59 306 0.0 0.9 0.00 0.53 0.00 97 1017.0
20260905055930 59 306 0.0 0.9 0.00 0.53 0.00 97 1017.0
20260905054933 59 306 0.0 0.9 0.00 0.53 0.00 97 1017.0
20260905053932 60 306 0.0 0.0 0.00 0.53 0.00 97 1017.0
20260905052934 60 306 0.0 0.0 0.00 0.53 0.00 97 1017.0
20260905051931 60 306 0.0 2.6 0.00 0.53 0.00 97 1016.9
20260905050931 60 306 0.0 2.6 0.00 0.53 0.00 97 1016.9
20260905045930 60 238 0.0 0.9 0.00 0.55 0.55 97 1016.8
20260905044931 60 238 0.0 0.9 0.00 0.55 0.55 97 1016.8
20260905043930 60 238 0.0 0.9 0.00 0.67 0.67 97 1016.9
20260905042941 60 238 0.0 0.9 0.00 0.67 0.67 97 1016.9
20260905041931 60 238 0.0 0.9 0.00 0.67 0.67 97 1017.1
20260905040930 60 238 0.0 0.9 0.00 0.67 0.67 97 1017.1
20260905035931 60 255 0.0 1.7 0.00 0.67 0.53 97 1017.0
20260905033930 60 290 0.0 0.9 0.00 0.67 0.67 97 1016.9
20260905032934 60 290 0.0 0.9 0.00 0.67 0.67 97 1016.9
20260905031930 60 290 0.0 1.7 0.00 0.72 0.67 97 1016.9
20260905024931 60 240 0.0 0.0 0.00 0.74 0.67 97 1016.9
20260905023931 60 240 0.0 0.0 0.00 0.74 0.67 97 1016.9
20260905022931 60 239 0.0 0.9 0.00 0.92 0.67 97 1016.7
20260905021932 60 239 0.0 0.9 0.00 0.92 0.67 97 1016.7
20260905020931 60 239 0.0 0.9 0.00 0.92 0.53 97 1016.7
20260905015931 60 239 0.0 0.9 0.00 0.92 0.53 97 1016.7
20260905000932 60 267 0.0 0.9 0.00 0.92 0.53 96 1015.8
20260904235943 60 267 0.0 0.9 0.00 0.92 0.53 96 1015.8
20260904233329 61 330 0.0 0.0 0.00 0.92 0.67 96 1015.8
20260904232330 61 330 0.0 0.0 0.00 0.92 0.67 96 1015.8
20260904231333 61 329 0.0 3.5 0.00 0.92 0.67 96 1015.7
20260904230329 61 329 0.0 3.5 0.00 0.92 0.67 96 1015.7
20260904225329 61 64 0.0 1.7 0.00 0.92 0.55 96 1015.8
20260904224331 61 64 0.0 1.7 0.00 0.92 0.55 96 1015.8
20260904223329 62 319 0.0 1.7 0.00 0.92 0.67 96 1015.5
20260904222331 62 259 0.0 0.9 0.00 0.92 0.67 95 1015.4
20260904221329 62 259 0.0 0.9 0.00 0.92 0.67 95 1015.4
20260904220330 62 275 0.0 0.9 0.00 0.92 0.55 96 1015.3
20260904215329 62 275 0.0 0.9 0.00 0.92 0.55 96 1015.3
20260904214331 63 275 0.0 0.0 0.00 0.92 0.67 95 1015.1
20260904213329 63 275 0.0 0.0 0.00 0.92 0.67 95 1015.1
20260904212329 63 275 0.0 0.0 0.00 0.92 0.67 96 1015.0
20260904211332 63 275 0.0 0.0 0.00 0.92 0.67 96 1015.0
20260904210331 63 271 0.0 0.9 0.00 0.92 0.53 96 1015.1
20260904205334 63 271 0.0 0.9 0.00 0.92 0.53 96 1015.1
20260904203333 64 270 0.0 0.9 0.00 0.92 0.67 96 1014.9
20260904202331 63 270 0.0 1.7 0.00 0.92 0.67 97 1014.7
20260904201333 63 270 0.0 1.7 0.00 0.92 0.67 97 1014.7
20260904200330 63 215 0.0 0.0 0.00 0.92 0.53 97 1014.5
20260904195340 63 215 0.0 0.0 0.00 0.92 0.53 97 1014.5
20260904194331 63 215 0.0 0.0 0.00 0.92 0.55 97 1014.5
20260904193331 63 215 0.0 0.0 0.00 0.92 0.55 97 1014.5
20260904192332 63 215 0.0 1.7 0.00 0.92 0.67 97 1014.5